Find Starlink 2414

NORAD ID: 48095 Int'l Des: 2021-027 Owner: SPXS Country: US Constellation: starlink operational
LEOCIRCULAR

リアルタイム位置

3D地球を読み込み中...

Starlink 2414について

説明を読み込み中...

次回通過

Passes for default location (London). Set your location on the main map for personalized predictions.

高度履歴

Loading altitude history...

軌道要素

1 48095U 21027D 26105.95984422 .00002775 00000-0 10573-3 0 9995
2 48095 53.1616 352.1948 0001163 81.0939 279.0193 15.30213580278234
Epoch: Apr 15, 2026 • Age: 9 hours

現在のステータス

高度 487.8 km
速度 7.62 km/s
衛星直下点 -37.49°S, 12.34°W
打ち上げ日 Apr 7, 2021
運用期間 5 years
タイプ internet

技術仕様

分類 Payload
質量 260.00 kg
乾燥質量 248.00 kg
総質量 260.00 kg
長さ 0.20 m
直径 2.80 m
スパン 9.00 m
形状 Box + pan
製造者 SPXS
バスタイプ Starlink
フェーズステータス In Orbit
所有者/国 SPXS/US

Most Searched